ATLAS 5 CENTAUR DEB, 43954

Orbit data source: Space-Track

ATLAS 5 CENTAUR DEB, 43954 is space debris in HEO originally from a launch on Wed, 17 Sep 2014 UTC launched from the Air Force Eastern Test Range (AFETR). Debris objects in space refer to the collection of defunct objects orbiting the Earth. Examples of debris include non-operational satellites, rocket bodies, and fragments generated from explosions, collisions, or faulty payload assembly.

Loading next visibility...
Identifier
43954, 2014-055H
Orbit
HEO
Country
Flag of USUS
Related business
Flag of USUnited Launch Alliance/Lockheed Martin (US)
Manufacturer
Unknown
Mission
Spacecraft
Bus & Motor
Unknown
Mass
Unknown
Launch date (UTC)
2014-09-17 (11 years ago)
Launch vehicle
Unknown
Launch site
Air Force Eastern Test Range (AFETR)
Object type
Payload
Rocket body
Debris
Shape & HBR
Unknown shape, 1.1 m
Radar Cross Section
Small (<0.1 m²)

Expand to show TLE details & history
Last TLE update: 22 hours ago

TLE from 22 hours ago
0 ATLAS 5 CENTAUR DEB
1 43954U 14055H   25349.51031750 -.00000042  00000-0  00000-0 0  9992
2 43954  20.3039 144.9001 4871972 165.1096 217.0255  1.89368016 50367
Epoch: 2025-12-15T12:14Z
TLE epoch observation values (Epoch: 2025-12-15T12:14:51.432Z)
Latitude
0.00001°
Longitude
-123.22995°
Altitude
33,373.685 km
Speed
2.369 km/s
True Right ascension
09h 39m 34s
True Declination
0° 00' 00"
Sunlit
Object was in daylight at epoch
Visualization orbit readout
Latitude
Unknown
Longitude
Unknown
Altitude
Unknown
Speed
Unknown
Apparent Right ascension
Unknown
Apparent Declination
Unknown
Sunlit
N/A
Visualization observer readout
Local Sidereal Time
08:41:35
Azimuth
Unknown
Elevation
Unknown
Doppler factor
Unknown
Orbital elements
Apogee altitude
34,667.199 km
Perigee altitude
7,774.77 km
Semi-major axis
27,599.121 km
Eccentricity
0.4872
Inclination
20.3039°
RAAN
144.9001°
Arg. of periapsis
165.1096°
True anomaly
194.93019°
Mean anomaly
217.0255°
Eccentric anomaly
205.15846°
Mean motion
0.47337 °/min
Orbital period
760.51 mins
BSTAR
0
Loading maneuver chart data...
Computing Atmospheric mass density...

Documentation

Showing up to 5 results
|